Location: Shenandoah County Park
(38.9356°N, 78.4524°W)
Time: 10:34:04
(UTC-04:00)

CUTE 1.7 + AOD 2 - Visible Passes

Search period start: 21 March 2023 00:00
Search period end: 31 March 2023 00:00
Orbit: 584 x 603 km, 97.7° (Epoch: 20 March)

Date Brightness Start Highest point End Pass type
(mag) Time Alt. Az. Time Alt. Az. Time Alt. Az.
21 Mar ? 04:38:28 10° NNE 04:40:56 33° NE 04:40:56 33° NE visible
21 Mar ? 06:16:19 10° NW 06:17:33 11° WNW 06:17:33 11° WNW visible
22 Mar ? 04:47:29 10° NNE 04:50:16 40° NNE 04:50:16 40° NNE visible
23 Mar ? 04:56:32 10° N 04:59:35 47° N 04:59:35 47° N visible
24 Mar ? 05:05:37 10° N 05:08:52 49° NNW 05:08:52 49° NNW visible
25 Mar ? 03:41:09 10° ENE 03:41:32 11° ENE 03:41:32 11° ENE visible
25 Mar ? 05:14:42 10° N 05:18:10 45° NW 05:18:10 45° NW visible
26 Mar ? 03:49:26 10° NE 03:50:49 14° ENE 03:50:49 14° ENE visible
26 Mar ? 05:23:50 10° N 05:27:26 38° WNW 05:27:26 38° WNW visible
27 Mar ? 03:57:59 10° NE 04:00:05 18° ENE 04:00:05 18° ENE visible
27 Mar ? 05:33:00 10° N 05:36:42 31° WNW 05:36:42 31° WNW visible
28 Mar ? 04:06:39 10° NE 04:09:19 23° ENE 04:09:19 23° ENE visible
28 Mar ? 05:42:12 10° NNW 05:45:38 25° WNW 05:45:57 25° WNW visible
29 Mar ? 04:15:24 10° NNE 04:18:34 30° E 04:18:34 30° E visible
29 Mar ? 05:51:28 10° NNW 05:54:33 20° WNW 05:55:11 19° W visible
30 Mar ? 04:24:12 10° NNE 04:27:47 39° E 04:27:47 39° E visible
30 Mar ? 06:00:49 10° NNW 06:03:26 16° WNW 06:04:24 15° W visible
